sat.trackr.live / text

‹ back to catalog

STARLINK-32668

NORAD 62212 · 2024-229W

PAYLOAD ACTIVE UNKNOWN

§ Identity

Operator
Country
US
Launch date
2024-12-04
Launch site
AFETR
Launch vehicle
Mass (kg)
RCS (m²)

Purposes: comms

External: N2YO · Heavens-Above · Gunter

§ Orbital elements

Epoch: 2026-05-25T03:47:30.420672Z

Period
94.27 min
Inclination
42.9968°
Eccentricity
0.0001052
Mean motion
15.27596860 rev/d
Perigee alt
482.3 km
Apogee alt
483.7 km
Semi-major
6,861.1 km
B*
4.7666e-4
RAAN
195.6273°
Arg perigee
292.6256°
Mean anomaly
67.4484°
Rev number
8,229

§ Raw data

STARLINK-326681 62212U 24229W   26145.15799098  .00012884  00000+0  47666-3 0  99922 62212  42.9968 195.6273 0001052 292.6256  67.4484 15.27596860 82299

JSON: /api/v1/satellites/62212 · /tle

For live sub-satellite position, see the globe view (requires WebGL).

§ Visibility from observer

Set your observer location to see the next 7 days of passes ≥ 10°. The values pass through the URL so the page stays shareable.

No JS? Fill the form by hand. The geolocation button needs JavaScript.